Location: Karlovy Vary
(50.2170°N, 12.9000°E)
Time: 23:23:24
(UTC+01:00)

ISS - Pass Details

Date: 04 October 2020
Orbit: 417 x 420 km, 51.6° (Epoch: 30 October)

Event Time Altitude Azimuth Distance (km) Brightness Sun altitude
Rises 20:19:50 0° 285° (WNW) 2,369 1.9 -16.8°
Reaches altitude 10° 20:22:12 10° 270° (W) 1,502 0.3 -17.2°
Maximum altitude 20:24:54 22° 217° (SW) 960 -1.7 -17.6°
Enters shadow 20:26:27 17° 179° (S) 1,163 -1.7 -17.8°
